GW5962 Weather Reports


time (UTC)temp
C
wind
direction
speed
KPH
gust
KPH
rain 1hr
cm
rain 24hr
cm
rain mn
cm
humidity
%
barometer
mb
20260508075056 16 0.0 1.6 0.00 0.00 0.00 90 1013.6
20260508074114 16 0.0 1.6 0.00 0.00 0.00 91 1013.2
20260508073051 16 0.0 0.0 0.00 0.00 0.00 92 1012.9
20260508072048 16 0.0 0.0 0.00 0.00 0.00 94 1012.7
20260508071106 16 0.0 1.6 0.00 0.00 0.00 94 1012.7
20260508065040 16 0.0 3.2 0.00 0.00 0.00 94 1012.9
20260508064057 17 0.0 1.6 0.00 0.00 0.00 95 1013.4
20260508063034 17 0.0 4.8 0.00 0.00 0.00 94 1012.8
20260508062032 17 0.0 1.6 0.00 0.00 0.00 92 1012.2
20260508061049 18 0.0 0.0 0.00 0.00 0.00 92 1012.5
20260508060026 18 0.0 1.6 0.00 0.00 0.00 92 1013.0
20260508055023 20 0.0 3.2 0.00 0.00 0.00 94 1012.8
20260508054041 20 0.0 1.6 0.00 0.00 0.00 91 1012.0
20260508053018 20 0.0 1.6 0.00 0.00 0.00 86 1012.2
20260508052015 21 0.0 1.6 0.00 0.00 0.00 77 1011.9
20260508051113 22 0.0 3.2 0.00 0.00 0.00 74 1011.2
20260508050130 22 0.0 3.2 0.00 0.00 0.00 74 1011.1
20260508045107 22 0.0 0.0 0.00 0.00 0.00 75 1011.1
20260508044105 22 0.0 1.6 0.00 0.00 0.00 76 1011.0
20260508043122 22 0.0 0.0 0.00 0.00 0.00 76 1010.9
20260508042059 21 0.0 1.6 0.00 0.00 0.00 77 1011.0
20260508041056 21 0.0 0.0 0.00 0.00 0.00 77 1011.2
20260508040054 21 0.0 1.6 0.00 0.00 0.00 78 1011.5
20260508035051 21 0.0 0.0 0.00 0.00 0.00 80 1011.5
20260508034048 21 0.0 1.6 0.00 0.00 0.00 83 1011.7
20260508033045 21 0.0 0.0 0.00 0.00 0.00 87 1011.8
20260508032042 21 0.0 0.0 0.00 0.00 0.00 87 1011.7
20260508031040 21 0.0 1.6 0.00 0.00 0.00 86 1012.0
20260508030037 21 0.0 0.0 0.00 0.00 0.00 83 1012.7
20260508025054 22 158 0.0 3.2 0.00 0.00 0.00 74 1012.4
20260508024031 23 135 0.0 3.2 0.00 0.00 0.00 65 1012.8
20260508023028 26 146 0.0 4.8 0.00 0.00 0.00 56 1012.5
20260508022026 28 0.0 0.0 0.00 0.00 0.00 48 1009.4
20260508021023 27 0.0 1.6 0.00 0.00 0.00 50 1009.5
20260508020020 27 0.0 0.0 0.00 0.00 0.00 50 1009.3
20260508015017 27 0.0 0.0 0.00 0.00 0.00 50 1009.5
20260508014114 28 0.0 0.0 0.00 0.00 0.00 49 1009.7
20260508013111 27 0.0 0.0 0.00 0.00 0.00 49 1009.8
20260508012109 27 0.0 0.0 0.00 0.00 0.00 50 1009.9
20260508011106 27 0.0 0.0 0.00 0.00 0.00 49 1010.0
20260508005100 27 0.0 0.0 0.00 0.00 0.00 50 1010.1
20260508004058 28 0.0 0.0 0.00 0.00 0.00 49 1009.9
20260508003115 28 0.0 0.0 0.00 0.00 0.00 49 1010.0
20260508002052 28 0.0 0.0 0.00 0.00 0.00 49 1009.8
20260508001049 27 0.0 0.0 0.00 0.00 0.00 50 1009.8
20260508000047 27 0.0 3.2 0.00 0.00 0.00 50 1009.8
20260507235043 27 0.0 1.6 0.00 0.00 0.00 51 1010.0
20260507234041 27 0.0 0.0 0.00 0.00 0.00 58 1010.0
20260507233038 27 0.0 0.0 0.00 0.00 0.00 59 1010.0
20260507232055 26 0.0 0.0 0.00 0.00 0.00 60 1010.1
20260507231032 27 0.0 0.0 0.00 0.00 0.00 60 1010.1
20260507230029 27 0.0 0.0 0.00 0.00 0.00 59 1010.2
20260507225027 27 0.0 0.0 0.00 0.00 0.00 59 1010.3
20260507224024 27 0.0 0.0 0.00 0.00 0.00 59 1010.4
20260507223021 27 0.0 0.0 0.00 0.00 0.00 54 1010.5
20260507222038 27 0.0 0.0 0.00 0.00 0.00 53 1010.6
20260507221035 27 0.0 0.0 0.00 0.00 0.00 53 1010.8
20260507220113 27 0.0 0.0 0.00 0.00 0.00 53 1010.7
20260507215110 28 0.0 0.0 0.00 0.00 0.00 52 1010.8
20260507214107 28 0.0 0.0 0.00 0.00 0.00 52 1010.9
20260507213104 28 0.0 0.0 0.00 0.00 0.00 51 1010.9
20260507212102 28 0.0 0.0 0.00 0.00 0.00 50 1010.9
20260507211059 28 0.0 0.0 0.00 0.00 0.00 50 1010.9
20260507210056 28 0.0 0.0 0.00 0.00 0.00 50 1011.0
20260507205053 28 0.0 0.0 0.00 0.00 0.00 50 1010.9
20260507204110 29 0.0 0.0 0.00 0.00 0.00 46 1010.9
20260507203047 30 0.0 0.0 0.00 0.00 0.00 46 1010.9
20260507202044 30 0.0 0.0 0.00 0.00 0.00 46 1010.8
20260507201102 30 0.0 0.0 0.00 0.00 0.00 44 1010.7
20260507200039 30 0.0 0.0 0.00 0.00 0.00 44 1010.8
20260507195036 30 0.0 0.0 0.00 0.00 0.00 43 1010.8
20260507194033 30 0.0 0.0 0.00 0.00 0.00 43 1010.9
20260507193051 30 0.0 1.6 0.00 0.00 0.00 43 1011.2
20260507192028 30 0.0 0.0 0.00 0.00 0.00 43 1011.1
20260507191025 31 0.0 0.0 0.00 0.00 0.00 43 1011.1
20260507190022 31 0.0 0.0 0.00 0.00 0.00 42 1010.9
20260507185020 31 0.0 0.0 0.00 0.00 0.00 42 1010.9
20260507184017 31 0.0 0.0 0.00 0.00 0.00 42 1011.1
20260507183134 31 0.0 1.6 0.00 0.00 0.00 42 1011.0
20260507182111 31 0.0 0.0 0.00 0.00 0.00 42 1011.0
20260507181109 31 0.0 0.0 0.00 0.00 0.00 42 1010.7
20260507180126 31 135 0.0 6.4 0.00 0.00 0.00 42 1010.7
20260507175103 31 0.0 0.0 0.00 0.00 0.00 42 1010.9
20260507174100 32 0.0 1.6 0.00 0.00 0.00 39 1010.7
20260507173058 32 0.0 1.6 0.00 0.00 0.00 40 1010.7
20260507172055 32 0.0 1.6 0.00 0.00 0.00 41 1010.9
20260507171052 32 0.0 0.0 0.00 0.00 0.00 42 1010.8
20260507170049 32 0.0 1.6 0.00 0.00 0.00 39 1010.8
20260507165046 32 135 0.0 8.0 0.00 0.00 0.00 39 1010.8
20260507164103 33 0.0 3.2 0.00 0.00 0.00 38 1011.1
20260507163041 33 0.0 6.4 0.00 0.00 0.00 39 1011.3
20260507162038 32 0.0 3.2 0.00 0.00 0.00 40 1011.6
20260507161035 32 135 0.0 6.4 0.00 0.00 0.00 40 1012.0
20260507160032 32 0.0 0.0 0.00 0.00 0.00 40 1012.2
20260507155049 32 0.0 0.0 0.00 0.00 0.00 41 1012.4
20260507154027 32 0.0 3.2 0.00 0.00 0.00 41 1012.8
20260507153024 32 0.0 0.0 0.00 0.00 0.00 43 1012.9
20260507152041 32 0.0 3.2 0.00 0.00 0.00 45 1013.1
20260507151018 31 0.0 4.8 0.00 0.00 0.00 44 1013.4
20260507150015 31 0.0 3.2 0.00 0.00 0.00 45 1013.9
20260507145113 31 0.0 1.6 0.00 0.00 0.00 45 1014.2
20260507144130 31 0.0 1.6 0.00 0.00 0.00 48 1014.3
20260507143108 31 0.0 4.8 0.00 0.00 0.00 49 1014.6
20260507142125 31 0.0 1.6 0.00 0.00 0.00 49 1015.1
20260507141102 30 0.0 1.6 0.00 0.00 0.00 50 1015.3
20260507140119 30 0.0 1.6 0.00 0.00 0.00 51 1015.6
20260507135056 30 0.0 1.6 0.00 0.00 0.00 52 1016.0
20260507134053 30 0.0 1.6 0.00 0.00 0.00 53 1016.4
20260507133051 30 0.0 0.0 0.00 0.00 0.00 54 1016.7
20260507132048 30 0.0 1.6 0.00 0.00 0.00 55 1017.0
20260507131045 29 0.0 0.0 0.00 0.00 0.00 57 1017.1
20260507130042 28 0.0 0.0 0.00 0.00 0.00 59 1017.2
20260507125039 29 0.0 0.0 0.00 0.00 0.00 58 1017.5
20260507124036 28 0.0 0.0 0.00 0.00 0.00 63 1017.6
20260507123034 26 0.0 0.0 0.00 0.00 0.00 69 1017.6
20260507122031 27 0.0 0.0 0.00 0.00 0.00 67 1017.4
20260507121028 26 0.0 0.0 0.00 0.00 0.00 67 1017.3
20260507120025 26 0.0 0.0 0.00 0.00 0.00 67 1017.4
20260507115043 26 0.0 0.0 0.00 0.00 0.00 67 1017.5
20260507114020 26 0.0 0.0 0.00 0.00 0.00 69 1017.8
20260507113037 26 0.0 0.0 0.00 0.00 0.00 66 1017.9
20260507112114 26 0.0 0.0 0.00 0.00 0.00 66 1017.8
20260507111131 26 0.0 0.0 0.00 0.00 0.00 67 1017.7
20260507110109 26 0.0 0.0 0.00 0.00 0.00 68 1017.6
20260507105106 25 0.0 0.0 0.00 0.00 0.00 70 1017.5
20260507104103 25 0.0 0.0 0.00 0.00 0.00 71 1017.5
20260507103101 24 0.0 0.0 0.00 0.00 0.00 72 1017.5
20260507102058 23 0.0 0.0 0.00 0.00 0.00 73 1017.5
20260507101055 23 0.0 0.0 0.00 0.00 0.00 73 1017.7
20260507100052 23 0.0 0.0 0.00 0.00 0.00 74 1017.8
20260507095049 23 0.0 0.0 0.00 0.00 0.00 75 1017.8
20260507094047 23 0.0 0.0 0.00 0.00 0.00 75 1017.9
20260507093043 23 0.0 0.0 0.00 0.00 0.00 75 1017.9
20260507092041 23 0.0 0.0 0.00 0.00 0.00 75 1017.7
20260507091038 23 0.0 0.0 0.00 0.00 0.00 76 1017.7
20260507090035 22 0.0 0.0 0.00 0.00 0.00 77 1017.6
20260507085033 22 0.0 0.0 0.00 0.00 0.00 77 1017.6
20260507084030 22 0.0 0.0 0.00 0.00 0.00 77 1017.8
20260507083027 23 0.0 0.0 0.00 0.00 0.00 75 1017.7
20260507082024 23 0.0 0.0 0.00 0.00 0.00 75 1017.9
20260507081021 23 0.0 1.6 0.00 0.00 0.00 74 1017.7
20260507080019 23 0.0 0.0 0.00 0.00 0.00 74 1017.8